| time (UTC) | temp F | wind direction | speed knots | gust knots | rain 1hr in | rain 24hr in | rain mn in | humidity % | barometer mb |
| 20260503223505 | 63 | 0 | 0.0 | 5.2 | 0.00 | 0.00 | 0.00 | 27 | 1016.3 |
| 20260503222505 | 63 | 0 | 0.0 | 8.7 | 0.00 | 0.00 | 0.00 | 27 | 1016.3 |
| 20260503222005 | 64 | 0 | 0.0 | 5.2 | 0.00 | 0.00 | 0.00 | 27 | 1016.3 |
| 20260503221505 | 64 | 343 | 1.7 | 8.7 | 0.00 | 0.00 | 0.00 | 27 | 1016.2 |
| 20260503220506 | 64 | 345 | 6.1 | 8.7 | 0.00 | 0.00 | 0.00 | 26 | 1016.1 |
| 20260503220009 | 64 | 0 | 0.0 | 8.7 | 0.00 | 0.00 | 0.00 | 27 | 1016.1 |
| 20260503215505 | 64 | 0 | 0.0 | 7.0 | 0.00 | 0.00 | 0.00 | 27 | 1016.2 |
| 20260503215005 | 64 | 0 | 0.0 | 7.0 | 0.00 | 0.00 | 0.00 | 27 | 1016.0 |
| 20260503214505 | 64 | 0 | 0.0 | 7.0 | 0.00 | 0.00 | 0.00 | 26 | 1016.3 |
| 20260503214005 | 64 | 0 | 0.0 | 5.2 | 0.00 | 0.00 | 0.00 | 27 | 1016.2 |
| 20260503213505 | 64 | 0 | 0.0 | 7.0 | 0.00 | 0.00 | 0.00 | 27 | 1016.2 |
| 20260503213006 | 64 | 0 | 0.0 | 9.6 | 0.00 | 0.00 | 0.00 | 26 | 1016.2 |
| 20260503212505 | 64 | 348 | 1.7 | 16.5 | 0.00 | 0.00 | 0.00 | 27 | 1016.3 |
| 20260503211006 | 64 | 327 | 1.7 | 13.0 | 0.00 | 0.00 | 0.00 | 27 | 1016.2 |
| 20260503210505 | 64 | 358 | 1.7 | 8.7 | 0.00 | 0.00 | 0.00 | 27 | 1016.1 |
| 20260503210008 | 65 | 0 | 0.0 | 8.7 | 0.00 | 0.00 | 0.00 | 27 | 1016.1 |
| 20260503205505 | 65 | 214 | 4.3 | 13.0 | 0.00 | 0.00 | 0.00 | 27 | 1016.1 |
| 20260503205005 | 64 | 234 | 6.1 | 13.0 | 0.00 | 0.00 | 0.00 | 28 | 1016.2 |
| 20260503204506 | 64 | 293 | 1.7 | 9.6 | 0.00 | 0.00 | 0.00 | 28 | 1016.2 |
| 20260503203505 | 64 | 0 | 0.0 | 9.6 | 0.00 | 0.00 | 0.00 | 28 | 1016.2 |
| 20260503203006 | 65 | 29 | 4.3 | 9.6 | 0.00 | 0.00 | 0.00 | 27 | 1016.3 |
| 20260503202506 | 65 | 347 | 4.3 | 9.6 | 0.00 | 0.00 | 0.00 | 28 | 1016.3 |
| 20260503201506 | 65 | 192 | 4.3 | 9.6 | 0.00 | 0.00 | 0.00 | 29 | 1016.4 |
| 20260503201006 | 65 | 232 | 4.3 | 9.6 | 0.00 | 0.00 | 0.00 | 28 | 1016.3 |
| 20260503200505 | 65 | 0 | 0.0 | 8.7 | 0.00 | 0.00 | 0.00 | 28 | 1016.3 |
| 20260503195505 | 65 | 0 | 0.0 | 13.0 | 0.00 | 0.00 | 0.00 | 28 | 1016.3 |
| 20260503195006 | 65 | 310 | 6.1 | 13.0 | 0.00 | 0.00 | 0.00 | 28 | 1016.3 |
| 20260503194504 | 65 | 0 | 0.0 | 8.7 | 0.00 | 0.00 | 0.00 | 29 | 1016.5 |
| 20260503194006 | 65 | 323 | 1.7 | 8.7 | 0.00 | 0.00 | 0.00 | 28 | 1016.6 |
| 20260503193006 | 64 | 329 | 4.3 | 8.7 | 0.00 | 0.01 | 0.00 | 30 | 1016.7 |
| 20260503192505 | 64 | 335 | 1.7 | 11.3 | 0.00 | 0.01 | 0.00 | 29 | 1016.8 |
| 20260503192006 | 64 | 8 | 1.7 | 11.3 | 0.00 | 0.01 | 0.00 | 29 | 1016.8 |
| 20260503191506 | 64 | 348 | 4.3 | 11.3 | 0.00 | 0.01 | 0.00 | 29 | 1016.9 |
| 20260503191006 | 64 | 323 | 4.3 | 8.7 | 0.00 | 0.01 | 0.00 | 29 | 1016.9 |
| 20260503190505 | 64 | 287 | 1.7 | 11.3 | 0.00 | 0.01 | 0.00 | 29 | 1017.2 |
| 20260503190010 | 64 | 302 | 4.3 | 14.8 | 0.00 | 0.01 | 0.00 | 30 | 1016.9 |
| 20260503185506 | 64 | 317 | 4.3 | 14.8 | 0.00 | 0.01 | 0.00 | 30 | 1017.1 |
| 20260503184506 | 64 | 68 | 4.3 | 11.3 | 0.00 | 0.01 | 0.00 | 30 | 1017.1 |
| 20260503184005 | 64 | 354 | 1.7 | 11.3 | 0.00 | 0.01 | 0.00 | 31 | 1017.3 |
| 20260503183505 | 63 | 0 | 0.0 | 13.0 | 0.00 | 0.01 | 0.00 | 31 | 1017.3 |
| 20260503183006 | 63 | 324 | 6.1 | 13.0 | 0.00 | 0.01 | 0.00 | 31 | 1017.3 |
| 20260503182505 | 63 | 318 | 1.7 | 13.0 | 0.00 | 0.01 | 0.00 | 31 | 1017.4 |
| 20260503182006 | 63 | 314 | 1.7 | 13.0 | 0.00 | 0.01 | 0.00 | 31 | 1017.1 |
| 20260503181505 | 63 | 308 | 9.6 | 13.0 | 0.00 | 0.01 | 0.00 | 30 | 1017.2 |
| 20260503181005 | 63 | 322 | 6.1 | 13.0 | 0.00 | 0.01 | 0.00 | 31 | 1017.4 |
| 20260503180505 | 63 | 347 | 1.7 | 11.3 | 0.00 | 0.01 | 0.00 | 32 | 1017.3 |
| 20260503180009 | 63 | 4 | 1.7 | 13.0 | 0.00 | 0.01 | 0.00 | 32 | 1017.4 |
| 20260503175506 | 63 | 340 | 6.1 | 13.0 | 0.00 | 0.01 | 0.00 | 31 | 1017.4 |
| 20260503175005 | 63 | 300 | 7.8 | 13.0 | 0.00 | 0.01 | 0.00 | 32 | 1017.5 |
| 20260503174505 | 63 | 0 | 0.0 | 14.8 | 0.00 | 0.01 | 0.00 | 31 | 1017.3 |
| 20260503174006 | 63 | 286 | 6.1 | 14.8 | 0.00 | 0.01 | 0.00 | 32 | 1017.5 |
| 20260503173505 | 63 | 283 | 7.8 | 14.8 | 0.00 | 0.02 | 0.00 | 34 | 1017.5 |
| 20260503173006 | 62 | 312 | 4.3 | 13.0 | 0.00 | 0.02 | 0.00 | 34 | 1017.7 |
| 20260503172505 | 62 | 319 | 4.3 | 13.0 | 0.00 | 0.02 | 0.00 | 33 | 1017.6 |
| 20260503172005 | 62 | 302 | 1.7 | 13.0 | 0.00 | 0.02 | 0.00 | 33 | 1017.7 |
| 20260503171505 | 62 | 340 | 4.3 | 16.5 | 0.00 | 0.05 | 0.00 | 32 | 1017.7 |
| 20260503171006 | 62 | 344 | 6.1 | 16.5 | 0.00 | 0.05 | 0.00 | 34 | 1017.7 |
| 20260503170506 | 62 | 294 | 6.1 | 16.5 | 0.00 | 0.05 | 0.00 | 34 | 1017.7 |
| 20260503131005 | 53 | 332 | 4.3 | 13.0 | 0.00 | 0.15 | 0.00 | 53 | 1017.5 |
| 20260503130505 | 53 | 330 | 7.8 | 11.3 | 0.00 | 0.15 | 0.00 | 55 | 1017.5 |
| 20260503110505 | 53 | 331 | 4.3 | 8.7 | 0.00 | 0.16 | 0.00 | 64 | 1016.1 |
| 20260503090505 | 50 | 16 | 1.7 | 7.0 | 0.00 | 0.16 | 0.00 | 83 | 1014.2 |
| 20260503081505 | 50 | 0 | 0.0 | 3.5 | 0.00 | 0.16 | 0.00 | 81 | 1013.8 |
| 20260503081005 | 50 | 0 | 0.0 | 3.5 | 0.00 | 0.16 | 0.00 | 81 | 1013.6 |
| 20260503080505 | 50 | 0 | 0.0 | 3.5 | 0.00 | 0.16 | 0.00 | 80 | 1013.4 |
| 20260503072505 | 51 | 0 | 0.0 | 0.0 | 0.00 | 0.16 | 0.00 | 76 | 1013.1 |
| 20260503072005 | 51 | 0 | 0.0 | 0.0 | 0.00 | 0.16 | 0.00 | 76 | 1013.0 |
| 20260503071505 | 51 | 0 | 0.0 | 1.7 | 0.00 | 0.16 | 0.00 | 75 | 1012.9 |
| 20260503055004 | 54 | 0 | 0.0 | 3.5 | 0.00 | 0.16 | 0.00 | 71 | 1012.2 |
| 20260503054505 | 54 | 0 | 0.0 | 3.5 | 0.00 | 0.16 | 0.00 | 71 | 1012.3 |
| 20260503053505 | 54 | 0 | 0.0 | 5.2 | 0.00 | 0.16 | 0.00 | 71 | 1012.5 |
| 20260503053005 | 54 | 0 | 0.0 | 5.2 | 0.00 | 0.16 | 0.00 | 71 | 1012.5 |
| 20260503052505 | 54 | 0 | 0.0 | 3.5 | 0.00 | 0.16 | 0.00 | 71 | 1012.4 |
| 20260503052004 | 54 | 0 | 0.0 | 3.5 | 0.00 | 0.16 | 0.00 | 71 | 1012.4 |
| 20260503051505 | 54 | 0 | 0.0 | 1.7 | 0.00 | 0.16 | 0.00 | 71 | 1012.3 |
| 20260503051005 | 54 | 0 | 0.0 | 1.7 | 0.00 | 0.16 | 0.00 | 71 | 1012.4 |
| 20260503050505 | 55 | 0 | 0.0 | 3.5 | 0.00 | 0.16 | 0.00 | 71 | 1012.5 |
| 20260503050008 | 55 | 0 | 0.0 | 3.5 | 0.00 | 0.16 | 0.00 | 71 | 1012.5 |
| 20260503045505 | 55 | 0 | 0.0 | 1.7 | 0.00 | 0.16 | 0.00 | 72 | 1012.5 |
| 20260503045005 | 55 | 0 | 0.0 | 0.0 | 0.00 | 0.16 | 0.00 | 73 | 1012.5 |
| 20260503044505 | 55 | 0 | 0.0 | 0.0 | 0.00 | 0.16 | 0.00 | 73 | 1012.6 |
| 20260503044005 | 55 | 0 | 0.0 | 0.0 | 0.00 | 0.16 | 0.00 | 73 | 1012.5 |
| 20260503043505 | 55 | 0 | 0.0 | 0.0 | 0.00 | 0.16 | 0.00 | 73 | 1012.5 |
| 20260503043005 | 55 | 0 | 0.0 | 0.0 | 0.00 | 0.16 | 0.00 | 73 | 1012.5 |
| 20260503042505 | 55 | 0 | 0.0 | 3.5 | 0.00 | 0.16 | 0.00 | 70 | 1012.5 |
| 20260503042005 | 55 | 0 | 0.0 | 3.5 | 0.00 | 0.16 | 0.00 | 69 | 1012.5 |
| 20260503041505 | 55 | 0 | 0.0 | 3.5 | 0.00 | 0.16 | 0.00 | 70 | 1012.4 |
| 20260503041005 | 55 | 0 | 0.0 | 3.5 | 0.00 | 0.16 | 0.00 | 72 | 1012.6 |
| 20260503040019 | 55 | 0 | 0.0 | 0.0 | 0.00 | 0.16 | 0.00 | 72 | 1012.5 |
| 20260503035505 | 55 | 0 | 0.0 | 0.0 | 0.00 | 0.16 | 0.16 | 72 | 1012.3 |
| 20260503035004 | 55 | 0 | 0.0 | 0.0 | 0.00 | 0.16 | 0.16 | 72 | 1012.4 |
| 20260503034504 | 55 | 0 | 0.0 | 0.0 | 0.00 | 0.16 | 0.16 | 71 | 1012.7 |
| 20260503034005 | 55 | 0 | 0.0 | 3.5 | 0.00 | 0.16 | 0.16 | 67 | 1012.6 |
| 20260503033504 | 55 | 0 | 0.0 | 3.5 | 0.00 | 0.16 | 0.16 | 66 | 1012.7 |
| 20260503033005 | 55 | 0 | 0.0 | 3.5 | 0.00 | 0.16 | 0.16 | 66 | 1012.5 |
| 20260503032004 | 55 | 0 | 0.0 | 5.2 | 0.00 | 0.16 | 0.16 | 66 | 1012.3 |
| 20260503031505 | 55 | 5 | 1.7 | 5.2 | 0.00 | 0.16 | 0.16 | 66 | 1012.3 |
| 20260503031005 | 55 | 6 | 1.7 | 3.5 | 0.00 | 0.16 | 0.16 | 67 | 1012.4 |
| 20260503030008 | 55 | 0 | 0.0 | 5.2 | 0.00 | 0.16 | 0.16 | 66 | 1012.3 |
| 20260503025505 | 55 | 0 | 0.0 | 3.5 | 0.00 | 0.16 | 0.16 | 67 | 1012.5 |
| 20260503024504 | 55 | 0 | 0.0 | 3.5 | 0.00 | 0.16 | 0.16 | 66 | 1012.7 |
| 20260503024005 | 55 | 0 | 0.0 | 5.2 | 0.00 | 0.16 | 0.16 | 66 | 1012.6 |
| 20260503023505 | 55 | 0 | 0.0 | 5.2 | 0.00 | 0.16 | 0.16 | 66 | 1012.5 |
| 20260503023005 | 55 | 0 | 0.0 | 5.2 | 0.00 | 0.16 | 0.16 | 66 | 1012.7 |
| 20260503022505 | 55 | 357 | 1.7 | 5.2 | 0.00 | 0.16 | 0.16 | 67 | 1012.5 |
| 20260503022005 | 55 | 0 | 0.0 | 5.2 | 0.00 | 0.16 | 0.16 | 67 | 1012.5 |
| 20260503021504 | 55 | 353 | 1.7 | 5.2 | 0.00 | 0.16 | 0.16 | 67 | 1012.5 |
| 20260503021005 | 55 | 5 | 1.7 | 7.0 | 0.00 | 0.16 | 0.16 | 67 | 1012.6 |
| 20260503020504 | 55 | 0 | 0.0 | 7.0 | 0.00 | 0.16 | 0.16 | 67 | 1012.4 |
| 20260503015505 | 55 | 0 | 0.0 | 7.0 | 0.00 | 0.16 | 0.16 | 67 | 1012.5 |
| 20260503014505 | 55 | 3 | 1.7 | 5.2 | 0.00 | 0.16 | 0.16 | 68 | 1012.2 |
| 20260503014004 | 55 | 3 | 1.7 | 5.2 | 0.00 | 0.16 | 0.16 | 69 | 1012.2 |
| 20260503013505 | 55 | 3 | 1.7 | 5.2 | 0.00 | 0.16 | 0.16 | 69 | 1012.1 |
| 20260503012005 | 55 | 5 | 1.7 | 5.2 | 0.00 | 0.16 | 0.16 | 71 | 1012.1 |
| 20260503011505 | 55 | 0 | 0.0 | 7.0 | 0.00 | 0.16 | 0.16 | 71 | 1012.3 |
| 20260503010505 | 55 | 0 | 0.0 | 3.5 | 0.00 | 0.16 | 0.16 | 72 | 1012.2 |
| 20260503010008 | 55 | 0 | 0.0 | 3.5 | 0.00 | 0.16 | 0.16 | 72 | 1012.3 |
| 20260503005504 | 55 | 0 | 0.0 | 3.5 | 0.00 | 0.16 | 0.16 | 72 | 1012.2 |
| 20260503004505 | 55 | 0 | 0.0 | 3.5 | 0.00 | 0.16 | 0.16 | 71 | 1012.0 |
| 20260503004004 | 55 | 0 | 0.0 | 3.5 | 0.00 | 0.16 | 0.16 | 70 | 1012.0 |
| 20260503003505 | 55 | 6 | 1.7 | 5.2 | 0.00 | 0.16 | 0.16 | 69 | 1011.8 |
| 20260503003005 | 55 | 0 | 0.0 | 7.0 | 0.00 | 0.16 | 0.16 | 69 | 1011.8 |
| 20260503002505 | 55 | 0 | 0.0 | 7.0 | 0.00 | 0.16 | 0.16 | 68 | 1011.8 |
| 20260503002005 | 55 | 5 | 4.3 | 5.2 | 0.00 | 0.16 | 0.16 | 68 | 1011.7 |
| 20260503001505 | 55 | 4 | 1.7 | 5.2 | 0.00 | 0.16 | 0.16 | 68 | 1011.5 |
| 20260503000504 | 55 | 356 | 1.7 | 7.0 | 0.00 | 0.16 | 0.16 | 68 | 1011.6 |
| 20260503000009 | 55 | 352 | 1.7 | 8.7 | 0.00 | 0.16 | 0.16 | 68 | 1011.5 |
| 20260502235505 | 55 | 356 | 1.7 | 8.7 | 0.00 | 0.16 | 0.16 | 69 | 1011.5 |
| 20260502234504 | 55 | 350 | 1.7 | 8.7 | 0.00 | 0.16 | 0.16 | 71 | 1011.3 |
| 20260502234005 | 55 | 5 | 4.3 | 8.7 | 0.00 | 0.16 | 0.16 | 73 | 1011.2 |
| 20260502233504 | 55 | 0 | 0.0 | 7.0 | 0.00 | 0.16 | 0.16 | 73 | 1011.2 |
| 20260502233006 | 55 | 333 | 1.7 | 7.0 | 0.00 | 0.16 | 0.16 | 73 | 1011.2 |
| 20260502232505 | 55 | 334 | 1.7 | 7.0 | 0.00 | 0.16 | 0.16 | 73 | 1011.5 |
| 20260502232005 | 55 | 355 | 4.3 | 7.0 | 0.00 | 0.16 | 0.16 | 73 | 1011.5 |
| 20260502231505 | 55 | 357 | 1.7 | 7.0 | 0.00 | 0.16 | 0.16 | 73 | 1011.5 |
| 20260502231005 | 55 | 357 | 1.7 | 7.0 | 0.00 | 0.16 | 0.16 | 73 | 1011.3 |
| 20260502230505 | 55 | 2 | 1.7 | 7.0 | 0.00 | 0.16 | 0.16 | 73 | 1011.3 |
| 20260502230008 | 55 | 355 | 4.3 | 8.7 | 0.00 | 0.16 | 0.16 | 74 | 1011.2 |
| 20260502225505 | 55 | 358 | 1.7 | 8.7 | 0.00 | 0.16 | 0.16 | 74 | 1011.2 |
| 20260502225005 | 55 | 3 | 4.3 | 7.0 | 0.00 | 0.16 | 0.16 | 75 | 1011.2 |
| 20260502224504 | 55 | 4 | 1.7 | 9.6 | 0.00 | 0.16 | 0.16 | 75 | 1011.3 |
| 20260502224005 | 55 | 4 | 4.3 | 9.6 | 0.00 | 0.16 | 0.16 | 75 | 1011.5 |